Location: Dattensoll
(49.9928°N, 9.8954°E)
Time: 07:14:14
(UTC+00:00)

COBE Rocket - Pass Details

Date: 19 May 2025
Orbit: 676 x 772 km, 97.1° (Epoch: 22 June)

Event Time Altitude Azimuth Distance (km) Brightness Sun altitude
Rises 21:50:41 0° 12° (NNE) 3,229 8.2 -17.5°
Reaches altitude 10° 21:52:59 10° 12° (NNE) 2,309 7.3 -17.6°
Maximum altitude 21:58:07 89° 286° (WNW) 778 4.0 -17.9°
Enters shadow 22:01:01 27° 195° (SSW) 1,458 5.0 -18.0°
